User: anonymous   Login
Location: Unspecified
(0.0000°N, 0.0000°E)
Time: 17:45:30
(UTC+00:00)
Language:

COSMOS 2467 - Orbit

View from above orbital plane
View from above orbital plane
View from above satellite
View from above satellite

Ground track
Ground track

The orbit data is extracted from the following two-line orbital elements,

1 37152U 10043A   18050.41943252  .00000001  00000-0 -67196-4 0  9995
2 37152  82.4602 166.3286 0000610  18.9703 341.1407 12.42878034337922
Epoch (UTC): 19 February 2018 10:03:58
Eccentricity: 0.0000610
inclination: 82.4602°
perigee height: 1494 km
apogee height: 1495 km
right ascension of ascending node: 166.3286°
argument of perigee: 18.9703°
revolutions per day: 12.42878034
mean anomaly at epoch: 341.1407°
orbit number at epoch: 33792

The dashed part of the orbit path shows where the satellite is in the earth's shadow,  

DLR